,,PA_Meas_PMT16A,,PR_Meas_QMR101_102,,RH_Meas_QMH101,,SR_Meas_QMS101,,TA_Meas_QMH101,,GenWind,,GenWind,
time,status,PA,status,PR,status,RH,status,SR,status,TA,status,DirAvg,status,SpdAvg,
2011-05-22, 00:00:04,VALID,918.334,VALID,0,VALID,97.4654,VALID,0,VALID,20.1708,VALID,175,VALID,1.14063,
2011-05-22, 00:01:04,VALID,918.299,VALID,0,VALID,97.4654,VALID,0,VALID,20.2098,VALID,183,VALID,1.24336,
2011-05-22, 00:02:04,VALID,918.276,VALID,0,VALID,97.4501,VALID,0,VALID,20.1708,VALID,174,VALID,1.36875,
2011-05-22, 00:03:04,VALID,918.267,VALID,0.2,VALID,97.4425,VALID,0,VALID,20.1498,VALID,164,VALID,1.16328,
2011-05-22, 00:04:04,VALID,918.25,VALID,0,VALID,97.4425,VALID,0,VALID,20.2098,VALID,157,VALID,0.655859,
2011-05-22, 00:05:04,VALID,918.232,VALID,0.2,VALID,97.4577,VALID,0,VALID,20.1888,VALID,145,VALID,0.796094,
2011-05-22, 00:06:04,VALID,918.219,VALID,0,VALID,97.4425,VALID,0,VALID,20.1513,VALID,155,VALID,1.67188,
2011-05-22, 00:07:04,VALID,918.179,VALID,0,VALID,97.4654,VALID,0,VALID,20.1903,VALID,127,VALID,0.598828,
2011-05-22, 00:08:04,VALID,918.16,VALID,0.2,VALID,97.4501,VALID,0,VALID,20.1903,VALID,163,VALID,1.30977,
2011-05-22, 00:09:04,VALID,918.183,VALID,0,VALID,97.4425,VALID,0,VALID,20.1903,VALID,139,VALID,1.45781,
2011-05-22, 00:10:04,VALID,918.148,VALID,0,VALID,97.4577,VALID,0,VALID,20.1903,VALID,126,VALID,1.48047,
2011-05-22, 00:11:04,VALID,918.147,VALID,0.2,VALID,97.4425,VALID,0,VALID,20.2293,VALID,143,VALID,0.552344,
2011-05-22, 00:12:04,VALID,918.131,VALID,0,VALID,97.4349,VALID,0,VALID,20.1903,VALID,137,VALID,0.705469,
2011-05-22, 00:13:04,VALID,918.134,VALID,0,VALID,97.4425,VALID,0,VALID,20.1903,VALID,112,VALID,1.1,
2011-05-22, 00:14:04,VALID,918.126,VALID,0.2,VALID,97.4273,VALID,0,VALID,20.1903,VALID,122,VALID,1.3293,
2011-05-22, 00:15:04,VALID,918.137,VALID,0,VALID,97.4425,VALID,0,VALID,20.1888,VALID,139,VALID,1.71523,
2011-05-22, 00:16:04,VALID,918.143,VALID,0,VALID,97.4425,VALID,0,VALID,20.1693,VALID,123,VALID,1.08047,
2011-05-22, 00:17:04,VALID,918.121,VALID,0,VALID,97.4501,VALID,0,VALID,20.1903,VALID,125,VALID,1.53945,
2011-05-22, 00:18:04,VALID,918.12,VALID,0.2,VALID,97.4425,VALID,0,VALID,20.1513,VALID,133,VALID,1.20625,
2011-05-22, 00:19:04,VALID,918.071,VALID,0,VALID,97.4349,VALID,0,VALID,20.1903,VALID,137,VALID,2.15547,
2011-05-22, 00:20:04,VALID,918.05,VALID,0,VALID,97.4425,VALID,0,VALID,20.1513,VALID,134,VALID,0.780078,
2011-05-22, 00:21:04,VALID,918.056,VALID,0.2,VALID,97.4349,VALID,0,VALID,20.1903,VALID,119,VALID,1.36914,
2011-05-22, 00:22:04,VALID,918.007,VALID,0,VALID,97.4349,VALID,0,VALID,20.1693,VALID,143,VALID,1.55234,
2011-05-22, 00:23:04,VALID,917.991,VALID,0,VALID,97.4196,VALID,0,VALID,20.1708,VALID,165,VALID,1.31914,
2011-05-22, 00:24:04,VALID,917.996,VALID,0.2,VALID,97.4196,VALID,0,VALID,20.1903,VALID,157,VALID,0.617578,
2011-05-22, 00:25:04,VALID,917.978,VALID,0,VALID,97.4273,VALID,0,VALID,20.1708,VALID,155,VALID,0.748047,
2011-05-22, 00:26:04,VALID,917.999,VALID,0.2,VALID,97.4349,VALID,0,VALID,20.2098,VALID,134,VALID,1.87656,
2011-05-22, 00:27:04,VALID,918.014,VALID,0,VALID,97.4044,VALID,0,VALID,20.1888,VALID,145,VALID,0.921094,
2011-05-22, 00:28:04,VALID,918,VALID,0,VALID,97.4044,VALID,0,VALID,20.1708,VALID,166,VALID,1.31641,
2011-05-22, 00:29:04,VALID,918.01,VALID,0.2,VALID,97.412,VALID,0,VALID,20.2098,VALID,150,VALID,1.74453,
2011-05-22, 00:30:04,VALID,918.036,VALID,0,VALID,97.3968,VALID,0,VALID,20.2083,VALID,156,VALID,1.63398,
2011-05-22, 00:31:04,VALID,918.012,VALID,0,VALID,97.412,VALID,0,VALID,20.1888,VALID,192,VALID,1.20547,
2011-05-22, 00:32:04,VALID,918.002,VALID,0,VALID,97.3968,VALID,0,VALID,20.1693,VALID,156,VALID,1.15937,
2011-05-22, 00:33:04,VALID,917.982,VALID,0,VALID,97.3968,VALID,0,VALID,20.1888,VALID,139,VALID,1.05547,
2011-05-22, 00:34:04,VALID,917.94,VALID,0.2,VALID,97.3815,VALID,0,VALID,20.1483,VALID,144,VALID,1.01953,
2011-05-22, 00:35:04,VALID,917.901,VALID,0,VALID,97.3815,VALID,0,VALID,20.1693,VALID,160,VALID,0.984766,
2011-05-22, 00:36:04,VALID,917.909,VALID,0,VALID,97.3891,VALID,0,VALID,20.1498,VALID,176,VALID,0.634766,
2011-05-22, 00:37:04,VALID,917.856,VALID,0,VALID,97.3891,VALID,0,VALID,20.1888,VALID,161,VALID,1.21289,
2011-05-22, 00:38:04,VALID,917.859,VALID,0.2,VALID,97.3663,VALID,0,VALID,20.1693,VALID,165,VALID,1.6207,
2011-05-22, 00:39:04,VALID,917.803,VALID,0,VALID,97.3815,VALID,0,VALID,20.1678,VALID,150,VALID,0.866797,
2011-05-22, 00:40:04,VALID,917.77,VALID,0,VALID,97.3815,VALID,0,VALID,20.1693,VALID,169,VALID,1.61797,
2011-05-22, 00:41:04,VALID,917.754,VALID,0,VALID,97.3891,VALID,0.107441,VALID,20.1693,VALID,176,VALID,1.84648,
2011-05-22, 00:42:04,VALID,917.712,VALID,0.2,VALID,97.351,VALID,0,VALID,20.1693,VALID,158,VALID,1.25586,
2011-05-22, 00:43:04,VALID,917.682,VALID,0,VALID,97.3739,VALID,0.107441,VALID,20.1888,VALID,132,VALID,1.25859,
2011-05-22, 00:44:04,VALID,917.652,VALID,0,VALID,97.351,VALID,0.107441,VALID,20.1693,VALID,168,VALID,1.88906,
2011-05-22, 00:45:04,VALID,917.599,VALID,0,VALID,97.3586,VALID,0,VALID,20.1708,VALID,131,VALID,0.230469,
2011-05-22, 00:46:04,VALID,917.592,VALID,0.2,VALID,97.351,VALID,0,VALID,20.1903,VALID,193,VALID,0.780469,
2011-05-22, 00:47:04,VALID,917.579,VALID,0,VALID,97.3434,VALID,0,VALID,20.1513,VALID,173,VALID,1.7957,
2011-05-22, 00:48:04,VALID,917.585,VALID,0,VALID,97.3434,VALID,0,VALID,20.1513,VALID,152,VALID,0.948828,
2011-05-22, 00:49:04,VALID,917.585,VALID,0,VALID,97.351,VALID,0,VALID,20.1123,VALID,175,VALID,1.51016,
2011-05-22, 00:50:04,VALID,917.59,VALID,0,VALID,97.3205,VALID,0,VALID,20.1123,VALID,156,VALID,1.21563,
2011-05-22, 00:51:04,VALID,917.575,VALID,0.2,VALID,97.3281,VALID,0,VALID,20.0928,VALID,161,VALID,1.33555,
2011-05-22, 00:52:04,VALID,917.573,VALID,0,VALID,97.3358,VALID,0,VALID,20.0928,VALID,164,VALID,1.43477,
2011-05-22, 00:53:04,VALID,917.581,VALID,0,VALID,97.3358,VALID,0,VALID,20.0928,VALID,138,VALID,1.11523,
2011-05-22, 00:54:04,VALID,917.519,VALID,0,VALID,97.3281,VALID,0,VALID,20.1318,VALID,170,VALID,1.77031,
2011-05-22, 00:55:04,VALID,917.536,VALID,0,VALID,97.3281,VALID,0,VALID,20.1513,VALID,148,VALID,0.979297,
2011-05-22, 00:56:04,VALID,917.508,VALID,0.2,VALID,97.3205,VALID,0,VALID,20.1123,VALID,157,VALID,1.1418,
2011-05-22, 00:57:04,VALID,917.498,VALID,0,VALID,97.3205,VALID,0,VALID,20.1303,VALID,138,VALID,1.37109,
2011-05-22, 00:58:04,VALID,917.482,VALID,0,VALID,97.3358,VALID,0,VALID,20.1123,VALID,146,VALID,1.16367,
2011-05-22, 00:59:04,VALID,917.466,VALID,0.2,VALID,97.2977,VALID,0,VALID,20.1108,VALID,160,VALID,1.14805,
2011-05-22, 01:00:04,VALID,917.48,VALID,0,VALID,97.3205,VALID,0,VALID,20.1123,VALID,143,VALID,2.05195,
2011-05-22, 01:01:04,VALID,917.451,VALID,0,VALID,97.3053,VALID,0,VALID,20.0718,VALID,161,VALID,1.65156,
2011-05-22, 01:02:04,VALID,917.439,VALID,0,VALID,97.3053,VALID,0,VALID,20.1123,VALID,157,VALID,1.50117,
2011-05-22, 01:03:04,VALID,917.403,VALID,0,VALID,97.3053,VALID,0,VALID,20.0913,VALID,172,VALID,1.53555,
2011-05-22, 01:04:04,VALID,917.395,VALID,0.2,VALID,97.3053,VALID,0,VALID,20.0913,VALID,134,VALID,1.74727,
2011-05-22, 01:05:04,VALID,917.395,VALID,0,VALID,97.2977,VALID,0,VALID,20.1123,VALID,141,VALID,2.53945,
2011-05-22, 01:06:04,VALID,917.348,VALID,0,VALID,97.29,VALID,0.107441,VALID,20.1513,VALID,151,VALID,2.10391,
2011-05-22, 01:07:04,VALID,917.356,VALID,0,VALID,97.2672,VALID,0,VALID,20.1318,VALID,142,VALID,2.51094,
2011-05-22, 01:08:04,VALID,917.341,VALID,0.2,VALID,97.3053,VALID,0,VALID,20.1108,VALID,103,VALID,2.18984,
2011-05-22, 01:09:04,VALID,917.354,VALID,0,VALID,97.2748,VALID,0,VALID,20.1123,VALID,145,VALID,1.89102,
2011-05-22, 01:10:04,VALID,917.325,VALID,0,VALID,97.3053,VALID,0,VALID,20.1123,VALID,128,VALID,2.16133,
2011-05-22, 01:11:04,VALID,917.293,VALID,0,VALID,97.2748,VALID,0,VALID,20.1108,VALID,138,VALID,1.34414,
2011-05-22, 01:12:04,VALID,917.278,VALID,0.2,VALID,97.2595,VALID,0,VALID,20.1123,VALID,161,VALID,1.35039,
2011-05-22, 01:13:04,VALID,917.254,VALID,0,VALID,97.2519,VALID,0,VALID,20.1108,VALID,162,VALID,1.35117,
2011-05-22, 01:14:04,VALID,917.199,VALID,0,VALID,97.2367,VALID,0,VALID,20.1318,VALID,146,VALID,2.71484,
2011-05-22, 01:15:04,VALID,917.198,VALID,0,VALID,97.2595,VALID,0,VALID,20.1108,VALID,134,VALID,2.77383,
2011-05-22, 01:16:04,VALID,917.123,VALID,0.2,VALID,97.229,VALID,0,VALID,20.1513,VALID,144,VALID,3.16172,
2011-05-22, 01:17:04,VALID,917.137,VALID,0,VALID,97.2138,VALID,0,VALID,20.1498,VALID,140,VALID,3.30625,
2011-05-22, 01:18:04,VALID,917.115,VALID,0,VALID,97.1757,VALID,0,VALID,20.1903,VALID,125,VALID,2.61445,
2011-05-22, 01:19:04,VALID,917.071,VALID,0,VALID,97.1452,VALID,0,VALID,20.1708,VALID,135,VALID,2.89453,
2011-05-22, 01:20:04,VALID,917.037,VALID,0,VALID,97.1604,VALID,0,VALID,20.1888,VALID,163,VALID,1.71953,
2011-05-22, 01:21:04,VALID,916.992,VALID,0.2,VALID,97.1376,VALID,0,VALID,20.1303,VALID,130,VALID,2.06758,
2011-05-22, 01:22:04,VALID,916.948,VALID,0,VALID,97.1299,VALID,0,VALID,20.1708,VALID,145,VALID,2.20781,
2011-05-22, 01:23:04,VALID,916.888,VALID,0,VALID,97.0994,VALID,0,VALID,20.1498,VALID,157,VALID,2.40781,
2011-05-22, 01:24:04,VALID,916.851,VALID,0,VALID,97.1071,VALID,0,VALID,20.1708,VALID,146,VALID,2.03867,
2011-05-22, 01:25:04,VALID,916.808,VALID,0,VALID,97.0766,VALID,0,VALID,20.1513,VALID,158,VALID,2.23594,
2011-05-22, 01:26:04,VALID,916.81,VALID,0.2,VALID,97.0613,VALID,0,VALID,20.1513,VALID,137,VALID,1.88359,
2011-05-22, 01:27:04,VALID,916.744,VALID,0,VALID,97.0385,VALID,0,VALID,20.1108,VALID,144,VALID,1.74023,
2011-05-22, 01:28:04,VALID,916.789,VALID,0,VALID,97.0537,VALID,0,VALID,20.1318,VALID,132,VALID,1.75781,
2011-05-22, 01:29:04,VALID,916.802,VALID,0,VALID,97.0156,VALID,0,VALID,20.1318,VALID,132,VALID,2.47266,
2011-05-22, 01:30:04,VALID,916.819,VALID,0,VALID,97.0156,VALID,0,VALID,20.1318,VALID,123,VALID,1.78711,
2011-05-22, 01:31:04,VALID,916.8,VALID,0,VALID,96.9851,VALID,0,VALID,20.1513,VALID,90,VALID,1.67188,
2011-05-22, 01:32:04,VALID,916.756,VALID,0,VALID,96.9775,VALID,0,VALID,20.1108,VALID,106,VALID,3.15781,
2011-05-22, 01:33:04,VALID,916.803,VALID,0,VALID,96.9394,VALID,0,VALID,20.1513,VALID,109,VALID,1.76992,
2011-05-22, 01:34:04,VALID,916.791,VALID,0,VALID,96.9241,VALID,0,VALID,20.0913,VALID,114,VALID,1.85781,
2011-05-22, 01:35:04,VALID,916.788,VALID,0,VALID,96.9012,VALID,0,VALID,20.1318,VALID,150,VALID,1.3293,
2011-05-22, 01:36:04,VALID,916.76,VALID,0.2,VALID,96.9012,VALID,0,VALID,20.1123,VALID,150,VALID,1.34961,
2011-05-22, 01:37:04,VALID,916.72,VALID,0,VALID,96.8784,VALID,0,VALID,20.1108,VALID,138,VALID,0.820703,
2011-05-22, 01:38:04,VALID,916.699,VALID,0,VALID,96.9012,VALID,0,VALID,20.0928,VALID,131,VALID,0.335156,
2011-05-22, 01:39:04,VALID,916.71,VALID,0,VALID,96.886,VALID,0,VALID,20.0928,VALID,131,VALID,0.917188,
2011-05-22, 01:40:04,VALID,916.702,VALID,0,VALID,96.8784,VALID,0,VALID,20.0538,VALID,132,VALID,0.985156,
2011-05-22, 01:41:04,VALID,916.688,VALID,0,VALID,96.9089,VALID,0,VALID,20.0733,VALID,139,VALID,1.19648,
2011-05-22, 01:42:04,VALID,916.716,VALID,0,VALID,96.8936,VALID,0,VALID,20.0538,VALID,139,VALID,1.21211,
2011-05-22, 01:43:04,VALID,916.707,VALID,0,VALID,96.9012,VALID,0,VALID,20.0343,VALID,139,VALID,0.49375,
2011-05-22, 01:44:04,VALID,916.688,VALID,0,VALID,96.9089,VALID,0,VALID,20.0538,VALID,105,VALID,1.33242,
2011-05-22, 01:45:04,VALID,916.642,VALID,0,VALID,96.9165,VALID,0,VALID,19.9938,VALID,136,VALID,0.810547,
2011-05-22, 01:46:04,VALID,916.62,VALID,0,VALID,96.8936,VALID,0,VALID,20.0328,VALID,98,VALID,1.49883,
2011-05-22, 01:47:04,VALID,916.591,VALID,0,VALID,96.8707,VALID,0,VALID,20.0118,VALID,108,VALID,1.39453,
2011-05-22, 01:48:04,VALID,916.536,VALID,0,VALID,96.8631,VALID,0,VALID,19.9938,VALID,154,VALID,1.0457,
2011-05-22, 01:49:04,VALID,916.544,VALID,0,VALID,96.8707,VALID,0.107441,VALID,19.9953,VALID,101,VALID,1.51445,
2011-05-22, 01:50:04,VALID,916.492,VALID,0,VALID,96.8555,VALID,0,VALID,20.0148,VALID,79,VALID,1.4918,
2011-05-22, 01:51:04,VALID,916.485,VALID,0,VALID,96.7945,VALID,0.107441,VALID,19.9743,VALID,122,VALID,1.19961,
2011-05-22, 01:52:04,VALID,916.491,VALID,0,VALID,96.7564,VALID,0,VALID,19.9938,VALID,102,VALID,1.1793,
2011-05-22, 01:53:04,VALID,916.524,VALID,0,VALID,96.7335,VALID,0.107441,VALID,19.9938,VALID,117,VALID,1.22344,
2011-05-22, 01:54:04,VALID,916.537,VALID,0,VALID,96.7564,VALID,0.107441,VALID,19.9743,VALID,123,VALID,0.643359,
2011-05-22, 01:55:04,VALID,916.527,VALID,0,VALID,96.7716,VALID,0.107441,VALID,19.9938,VALID,114,VALID,0.942578,
2011-05-22, 01:56:04,VALID,916.546,VALID,0,VALID,96.7793,VALID,0.107441,VALID,19.9743,VALID,148,VALID,1.26758,
2011-05-22, 01:57:04,VALID,916.567,VALID,0,VALID,96.8326,VALID,0,VALID,19.9533,VALID,66,VALID,1.05898,
2011-05-22, 01:58:04,VALID,916.557,VALID,0,VALID,96.7716,VALID,0.107441,VALID,19.9938,VALID,119,VALID,1.76055,
2011-05-22, 01:59:04,VALID,916.555,VALID,0,VALID,96.7411,VALID,0.107441,VALID,20.0328,VALID,132,VALID,0.742969,
2011-05-22, 02:00:04,VALID,916.536,VALID,0,VALID,96.7107,VALID,0,VALID,19.9758,VALID,126,VALID,1.90273,
2011-05-22, 02:01:04,VALID,916.512,VALID,0,VALID,96.7183,VALID,0,VALID,19.9953,VALID,123,VALID,1.45391,
2011-05-22, 02:02:04,VALID,916.448,VALID,0,VALID,96.703,VALID,0,VALID,19.9563,VALID,120,VALID,1.65469,
2011-05-22, 02:03:04,VALID,916.397,VALID,0,VALID,96.6497,VALID,0,VALID,19.9953,VALID,113,VALID,1.91211,
2011-05-22, 02:04:04,VALID,916.36,VALID,0,VALID,96.6497,VALID,0,VALID,19.9743,VALID,112,VALID,1.78984,
2011-05-22, 02:05:04,VALID,916.31,VALID,0,VALID,96.6115,VALID,0,VALID,19.9953,VALID,136,VALID,2.25117,
2011-05-22, 02:06:04,VALID,916.285,VALID,0,VALID,96.5582,VALID,0,VALID,19.9563,VALID,126,VALID,2.36445,
2011-05-22, 02:07:04,VALID,916.301,VALID,0,VALID,96.5048,VALID,0,VALID,19.9758,VALID,151,VALID,1.55273,
2011-05-22, 02:08:04,VALID,916.298,VALID,0,VALID,96.4438,VALID,0,VALID,19.9953,VALID,134,VALID,1.41328,
2011-05-22, 02:09:04,VALID,916.288,VALID,0,VALID,96.3981,VALID,0,VALID,19.9758,VALID,116,VALID,1.58281,
2011-05-22, 02:10:04,VALID,916.232,VALID,0,VALID,96.2837,VALID,0,VALID,19.9563,VALID,136,VALID,1.93633,
2011-05-22, 02:11:04,VALID,916.183,VALID,0,VALID,96.2533,VALID,0,VALID,19.9563,VALID,138,VALID,1.66914,
2011-05-22, 02:12:04,VALID,916.12,VALID,0,VALID,96.1999,VALID,0,VALID,19.9368,VALID,137,VALID,2.11484,
2011-05-22, 02:13:04,VALID,916.05,VALID,0,VALID,96.1541,VALID,0,VALID,19.9563,VALID,124,VALID,1.94492,
2011-05-22, 02:14:04,VALID,916.062,VALID,0,VALID,96.1313,VALID,0,VALID,19.9563,VALID,145,VALID,1.37812,
2011-05-22, 02:15:04,VALID,916.043,VALID,0,VALID,96.1313,VALID,0.107441,VALID,19.9548,VALID,175,VALID,2.13516,
2011-05-22, 02:16:04,VALID,916.008,VALID,0,VALID,96.1084,VALID,0,VALID,19.9938,VALID,156,VALID,2.07305,
2011-05-22, 02:17:04,VALID,915.963,VALID,0,VALID,96.1389,VALID,0,VALID,19.9533,VALID,158,VALID,1.34141,
2011-05-22, 02:18:04,VALID,915.926,VALID,0,VALID,96.1618,VALID,0.107441,VALID,19.9353,VALID,131,VALID,2.03125,
2011-05-22, 02:19:04,VALID,915.821,VALID,0,VALID,96.177,VALID,0,VALID,19.9143,VALID,166,VALID,2.06445,
2011-05-22, 02:20:04,VALID,915.842,VALID,0,VALID,96.1999,VALID,0.107441,VALID,19.9353,VALID,77,VALID,0.915234,
2011-05-22, 02:21:04,VALID,915.813,VALID,0,VALID,96.2075,VALID,0,VALID,19.9158,VALID,131,VALID,1.24336,
2011-05-22, 02:22:04,VALID,915.836,VALID,0,VALID,96.2228,VALID,0,VALID,19.9158,VALID,147,VALID,2.12852,
2011-05-22, 02:23:04,VALID,915.82,VALID,0,VALID,96.2304,VALID,0,VALID,19.8963,VALID,64,VALID,1.24297,
2011-05-22, 02:24:04,VALID,915.803,VALID,0,VALID,96.2151,VALID,0.107441,VALID,19.8963,VALID,130,VALID,2.24141,
2011-05-22, 02:25:04,VALID,915.76,VALID,0,VALID,96.177,VALID,0.107441,VALID,19.9353,VALID,83,VALID,2.02383,
2011-05-22, 02:26:04,VALID,915.795,VALID,0,VALID,96.1618,VALID,0,VALID,19.9158,VALID,108,VALID,2.57656,
2011-05-22, 02:27:04,VALID,915.73,VALID,0,VALID,96.116,VALID,0,VALID,19.8963,VALID,104,VALID,2.2375,
2011-05-22, 02:28:04,VALID,915.686,VALID,0,VALID,96.0779,VALID,0,VALID,19.9353,VALID,89,VALID,1.74609,
2011-05-22, 02:29:04,VALID,915.689,VALID,0,VALID,96.1008,VALID,0,VALID,19.9158,VALID,146,VALID,1.34805,
2011-05-22, 02:30:04,VALID,915.677,VALID,0,VALID,96.1084,VALID,0,VALID,19.8963,VALID,109,VALID,1.7582,
2011-05-22, 02:31:04,VALID,915.634,VALID,0,VALID,96.1313,VALID,0,VALID,19.8768,VALID,120,VALID,1.36953,
2011-05-22, 02:32:04,VALID,915.695,VALID,0.2,VALID,96.1465,VALID,0,VALID,19.8768,VALID,83,VALID,1.29258,
2011-05-22, 02:33:04,VALID,915.694,VALID,0,VALID,96.1694,VALID,0,VALID,19.8378,VALID,91,VALID,1.07773,
2011-05-22, 02:34:04,VALID,915.695,VALID,0,VALID,95.9026,VALID,0.107441,VALID,19.8183,VALID,87,VALID,1.88555,
2011-05-22, 02:35:04,VALID,915.695,VALID,0,VALID,95.712,VALID,0.107441,VALID,19.8963,VALID,116,VALID,2.51445,
2011-05-22, 02:36:04,VALID,915.631,VALID,0,VALID,95.4528,VALID,0.107441,VALID,19.8768,VALID,76,VALID,3.13438,
2011-05-22, 02:37:04,VALID,915.696,VALID,0,VALID,95.2012,VALID,0,VALID,19.8963,VALID,87,VALID,2.37383,
2011-05-22, 02:38:04,VALID,915.679,VALID,0,VALID,95.0564,VALID,0,VALID,19.8978,VALID,111,VALID,1.5,
2011-05-22, 02:39:04,VALID,915.661,VALID,0,VALID,95.0869,VALID,0,VALID,19.8573,VALID,117,VALID,1.66367,
2011-05-22, 02:40:04,VALID,915.649,VALID,0,VALID,94.9649,VALID,0.107441,VALID,19.8378,VALID,113,VALID,2.30742,
2011-05-22, 02:41:04,VALID,915.577,VALID,0,VALID,95.0259,VALID,0,VALID,19.8573,VALID,91,VALID,1.29805,
2011-05-22, 02:42:04,VALID,915.565,VALID,0,VALID,95.0792,VALID,0,VALID,19.7793,VALID,96,VALID,0.967578,
2011-05-22, 02:43:04,VALID,915.586,VALID,0,VALID,95.1021,VALID,0,VALID,19.7808,VALID,99,VALID,1.46836,
2011-05-22, 02:44:04,VALID,915.539,VALID,0,VALID,95.1326,VALID,0.107441,VALID,19.7208,VALID,90,VALID,1,
2011-05-22, 02:45:04,VALID,915.533,VALID,0,VALID,95.3232,VALID,0.107441,VALID,19.7208,VALID,90,VALID,0.5,
2011-05-22, 02:46:04,VALID,915.532,VALID,0,VALID,95.3613,VALID,0,VALID,19.6428,VALID,118,VALID,0.637891,
2011-05-22, 02:47:04,VALID,915.514,VALID,0,VALID,95.4147,VALID,0,VALID,19.6833,VALID,118,VALID,0.405469,
2011-05-22, 02:48:04,VALID,915.508,VALID,0,VALID,95.4452,VALID,0.107441,VALID,19.6638,VALID,118,VALID,0.976563,
2011-05-22, 02:49:04,VALID,915.477,VALID,0,VALID,95.468,VALID,0,VALID,19.6428,VALID,118,VALID,0.683594,
2011-05-22, 02:50:04,VALID,915.464,VALID,0,VALID,95.4528,VALID,0,VALID,19.6638,VALID,117,VALID,1.18086,
2011-05-22, 02:51:04,VALID,915.456,VALID,0,VALID,95.2393,VALID,0.107441,VALID,19.6443,VALID,101,VALID,1.31094,
2011-05-22, 02:52:04,VALID,915.46,VALID,0,VALID,95.1174,VALID,0,VALID,19.6443,VALID,94,VALID,0.688281,
2011-05-22, 02:53:04,VALID,915.461,VALID,0,VALID,95.1097,VALID,0,VALID,19.6053,VALID,93,VALID,1.02188,
2011-05-22, 02:54:04,VALID,915.479,VALID,0,VALID,94.9954,VALID,0,VALID,19.6038,VALID,93,VALID,1.11406,
2011-05-22, 02:55:04,VALID,915.445,VALID,0,VALID,94.9954,VALID,0,VALID,19.6248,VALID,93,VALID,0.801562,
2011-05-22, 02:56:04,VALID,915.455,VALID,0,VALID,95.1326,VALID,0,VALID,19.6038,VALID,93,VALID,0.569531,
2011-05-22, 02:57:04,VALID,915.432,VALID,0,VALID,95.3079,VALID,0.107441,VALID,19.6038,VALID,93,VALID,0.55,
2011-05-22, 02:58:04,VALID,915.454,VALID,0,VALID,95.4604,VALID,0.107441,VALID,19.6233,VALID,93,VALID,0.942578,
2011-05-22, 02:59:04,VALID,915.481,VALID,0,VALID,95.5443,VALID,0,VALID,19.6233,VALID,93,VALID,0.869922,
2011-05-22, 03:00:04,VALID,915.485,VALID,0,VALID,95.5976,VALID,0,VALID,19.6038,VALID,93,VALID,0.817969,
2011-05-22, 03:01:04,VALID,915.513,VALID,0,VALID,95.6662,VALID,0.107441,VALID,19.5843,VALID,93,VALID,0.444922,
2011-05-22, 03:02:04,VALID,915.527,VALID,0,VALID,95.7044,VALID,0.107441,VALID,19.5648,VALID,93,VALID,0.612109,
2011-05-22, 03:03:04,VALID,915.509,VALID,0,VALID,95.7501,VALID,0,VALID,19.5648,VALID,93,VALID,0.685547,
2011-05-22, 03:04:04,VALID,915.514,VALID,0,VALID,95.7577,VALID,0,VALID,19.6053,VALID,93,VALID,0.800391,
2011-05-22, 03:05:04,VALID,915.475,VALID,0,VALID,95.8035,VALID,0.107441,VALID,19.5648,VALID,93,VALID,0.801562,
2011-05-22, 03:06:04,VALID,915.506,VALID,0,VALID,95.773,VALID,0,VALID,19.6248,VALID,93,VALID,0.991016,
2011-05-22, 03:07:04,VALID,915.49,VALID,0,VALID,95.834,VALID,0,VALID,19.5858,VALID,93,VALID,0.566406,
2011-05-22, 03:08:04,VALID,915.484,VALID,0,VALID,95.8568,VALID,0,VALID,19.5468,VALID,93,VALID,0.576953,
2011-05-22, 03:09:04,VALID,915.479,VALID,0,VALID,95.9254,VALID,0,VALID,19.5273,VALID,93,VALID,0.405859,
2011-05-22, 03:10:04,VALID,915.482,VALID,0,VALID,95.9788,VALID,0,VALID,19.5468,VALID,93,VALID,0.219141,
2011-05-22, 03:11:04,VALID,915.44,VALID,0,VALID,96.0322,VALID,0,VALID,19.5078,VALID,112,VALID,0.796484,
2011-05-22, 03:12:04,VALID,915.472,VALID,0,VALID,96.0703,VALID,0,VALID,19.4883,VALID,112,VALID,0.619531,
2011-05-22, 03:13:04,VALID,915.475,VALID,0,VALID,96.1008,VALID,0,VALID,19.4688,VALID,112,VALID,0.747656,
2011-05-22, 03:14:04,VALID,915.471,VALID,0,VALID,96.116,VALID,0,VALID,19.4673,VALID,112,VALID,0.867969,
2011-05-22, 03:15:04,VALID,915.504,VALID,0,VALID,96.116,VALID,0,VALID,19.4673,VALID,111,VALID,0.736719,
2011-05-22, 03:16:04,VALID,915.551,VALID,0,VALID,96.1618,VALID,0,VALID,19.4883,VALID,112,VALID,0.724219,
2011-05-22, 03:17:04,VALID,915.544,VALID,0,VALID,96.1084,VALID,0,VALID,19.4673,VALID,112,VALID,0.575,
2011-05-22, 03:18:04,VALID,915.584,VALID,0,VALID,96.0932,VALID,0.107441,VALID,19.5078,VALID,111,VALID,0.576953,
2011-05-22, 03:19:04,VALID,915.614,VALID,0,VALID,96.1389,VALID,0,VALID,19.5273,VALID,112,VALID,0.373047,
2011-05-22, 03:20:04,VALID,915.67,VALID,0,VALID,96.1236,VALID,0,VALID,19.4868,VALID,286,VALID,0.445313,
2011-05-22, 03:21:04,VALID,915.68,VALID,0,VALID,96.1999,VALID,0,VALID,19.5063,VALID,286,VALID,0.644922,
2011-05-22, 03:22:04,VALID,915.653,VALID,0,VALID,96.3447,VALID,0.107441,VALID,19.5063,VALID,286,VALID,0.739453,
2011-05-22, 03:23:04,VALID,915.672,VALID,0,VALID,96.4438,VALID,0,VALID,19.5258,VALID,286,VALID,1.14727,
2011-05-22, 03:24:04,VALID,915.668,VALID,0,VALID,96.5582,VALID,0,VALID,19.5453,VALID,286,VALID,0.990234,
2011-05-22, 03:25:04,VALID,915.619,VALID,0,VALID,96.5811,VALID,0,VALID,19.5258,VALID,286,VALID,0.633594,
2011-05-22, 03:26:04,VALID,915.623,VALID,0,VALID,96.6268,VALID,0,VALID,19.4868,VALID,286,VALID,0.466016,
2011-05-22, 03:27:04,VALID,915.609,VALID,0,VALID,96.6725,VALID,0.107441,VALID,19.5258,VALID,286,VALID,0.564844,
2011-05-22, 03:28:04,VALID,915.607,VALID,0,VALID,96.6725,VALID,0,VALID,19.5273,VALID,189,VALID,1.30977,
2011-05-22, 03:29:04,VALID,915.567,VALID,0,VALID,96.6802,VALID,0,VALID,19.5453,VALID,186,VALID,1.40078,
2011-05-22, 03:30:04,VALID,915.605,VALID,0,VALID,96.6573,VALID,0,VALID,19.5078,VALID,186,VALID,1.13906,
2011-05-22, 03:31:04,VALID,915.604,VALID,0,VALID,96.6878,VALID,0,VALID,19.4883,VALID,186,VALID,0.713672,
2011-05-22, 03:32:04,VALID,915.619,VALID,0,VALID,96.6649,VALID,0,VALID,19.4883,VALID,186,VALID,0.676562,
2011-05-22, 03:33:04,VALID,915.639,VALID,0,VALID,96.6573,VALID,0,VALID,19.4898,VALID,187,VALID,0.928516,
2011-05-22, 03:34:04,VALID,915.659,VALID,0,VALID,96.703,VALID,0,VALID,19.4898,VALID,191,VALID,0.863672,
2011-05-22, 03:35:04,VALID,915.695,VALID,0,VALID,96.7107,VALID,0,VALID,19.4688,VALID,216,VALID,0.352734,
2011-05-22, 03:36:04,VALID,915.722,VALID,0,VALID,96.7716,VALID,0,VALID,19.4883,VALID,215,VALID,0.363281,
2011-05-22, 03:37:04,VALID,915.692,VALID,0,VALID,96.8021,VALID,0,VALID,19.4493,VALID,216,VALID,0.264453,
2011-05-22, 03:38:04,VALID,915.713,VALID,0,VALID,96.8098,VALID,0,VALID,19.4688,VALID,215,VALID,0.46875,
2011-05-22, 03:39:04,VALID,915.713,VALID,0,VALID,96.8326,VALID,0,VALID,19.4298,VALID,216,VALID,1.04375,
2011-05-22, 03:40:04,VALID,915.688,VALID,0,VALID,96.8479,VALID,0,VALID,19.4883,VALID,216,VALID,0.905469,
2011-05-22, 03:41:04,VALID,915.697,VALID,0,VALID,96.8555,VALID,0,VALID,19.4898,VALID,193,VALID,0.780469,
2011-05-22, 03:42:04,VALID,915.664,VALID,0,VALID,96.8631,VALID,0,VALID,19.4688,VALID,213,VALID,0.703906,
2011-05-22, 03:43:04,VALID,915.642,VALID,0,VALID,96.8631,VALID,0,VALID,19.4703,VALID,213,VALID,0.853516,